Weather History for KHEZ - November, 2012

Change the Weather History Date:

Saturday, November 3, 2012

  Actual Average Record
Temperature  
Mean Temperature 68 °F -  
Max Temperature 75 °F 71 °F 85 °F (1946)
Min Temperature 60 °F 49 °F 24 °F (1966)
Cooling Degree Days 2    
Growing Degree Days 18 (Base 50)    
Moisture  
Dew Point 57 °F    
Average Humidity 76    
Maximum Humidity 83    
Minimum Humidity 57    
Precipitation  
Precipitation 0.00 in - - ()
Sea Level Pressure  
Sea Level Pressure 30.09 in    
Wind  
Wind Speed 5 mph (SW)    
Max Wind Speed 13 mph    
Max Gust Speed 16 mph    
Visibility 6 miles    
Events      
Averages and records for this station are not official NWS values.
T = Trace of Precipitation, MM = Missing Value Source: NWS Daily Summary

Daily Weather History Graph

Daily Weather History Graph

Search for Another Location

Airport or City:

Trip Planner

Search our weather history database for the weather conditions in past years. The results will help you decide how hot, cold, wet, or windy it might be!

Date:

Astronomy

Nov. 03, 2012 Rise Set
Actual Time 7:23 AM CDT 6:13 PM CDT
Civil Twilight 6:58 AM CDT 6:38 PM CDT
Nautical Twilight 6:29 AM CDT 7:07 PM CDT
Astronomical Twilight 6:00 AM CDT 7:36 PM CDT
Moon 10:00 PM CDT (11/3) 11:21 AM CDT (11/3)
Length of Visible Light 11h 40m
Length of Day
10h 50m
Waning Gibbous, 80% of the Moon is Illuminated
Nov 3
Waning Gibbous
Nov 6
Last Quarter
Nov 13
New
Nov 20
First Quarter
Nov 28
Full

Hourly Weather History & Observations

Time (CDT) Temp. Dew Point Humidity Pressure Visibility Wind Dir Wind Speed Gust Speed Precip Events Conditions
12:15 AM 66.2 °F 55.4 °F 68% - 10.0 mi SSW 4.6 mph - N/A   Clear
12:35 AM 66.2 °F 55.4 °F 68% 30.05 in 10.0 mi SSW 5.8 mph - N/A   Clear
12:55 AM 66.2 °F 55.4 °F 68% 30.05 in 10.0 mi SSW 6.9 mph - N/A   Clear
1:15 AM 64.4 °F 55.4 °F 73% 30.05 in 10.0 mi SSW 4.6 mph - N/A   Clear
1:35 AM 64.4 °F 55.4 °F 73% 30.04 in 10.0 mi South 4.6 mph - N/A   Clear
2:15 AM 64.4 °F 55.4 °F 73% 30.05 in 10.0 mi SSW 5.8 mph - N/A   Clear
2:35 AM 62.6 °F 55.4 °F 77% 30.04 in 10.0 mi SSW 3.5 mph - N/A   Clear
2:55 AM 62.6 °F 55.4 °F 77% 30.05 in 10.0 mi SSW 3.5 mph - N/A   Clear
3:15 AM 60.8 °F 53.6 °F 77% 30.04 in 10.0 mi SSW 4.6 mph - N/A   Clear
3:35 AM 60.8 °F 55.4 °F 82% 30.04 in 10.0 mi SSW 3.5 mph - N/A   Clear
3:55 AM 60.8 °F 53.6 °F 77% 30.05 in 7.0 mi SSW 3.5 mph - N/A   Clear
4:15 AM 60.8 °F 55.4 °F 82% 30.05 in 10.0 mi SW 4.6 mph - N/A   Clear
4:35 AM 62.6 °F 55.4 °F 77% 30.05 in 7.0 mi SSW 3.5 mph - N/A   Clear
4:55 AM 60.8 °F 55.4 °F 82% 30.06 in 5.0 mi SSW 4.6 mph - N/A   Clear
5:15 AM 60.8 °F 55.4 °F 82% 30.06 in 3.0 mi SSW 3.5 mph - N/A   Partly Cloudy
5:35 AM 62.6 °F 57.2 °F 82% 30.07 in 2.0 mi SW 4.6 mph - N/A   Overcast
5:55 AM 62.6 °F 57.2 °F 82% 30.08 in 0.2 mi SW 4.6 mph - N/A   Overcast
6:15 AM 64.4 °F 57.2 °F 77% 30.08 in 0.5 mi SW 4.6 mph - N/A   Overcast
6:35 AM 64.4 °F 57.2 °F 77% 30.09 in 0.2 mi SW 3.5 mph - N/A   Overcast
6:55 AM 64.4 °F 57.2 °F 77% 30.09 in 0.2 mi SW 4.6 mph - N/A   Overcast
7:15 AM 64.4 °F 57.2 °F 77% 30.10 in 0.2 mi SSW 3.5 mph - N/A   Overcast
7:35 AM 64.4 °F 57.2 °F 77% 30.10 in 0.2 mi SSW 3.5 mph - N/A   Overcast
7:55 AM 64.4 °F 57.2 °F 77% 30.11 in 0.2 mi SW 4.6 mph - N/A   Overcast
8:15 AM 64.4 °F 59.0 °F 83% 30.12 in 0.2 mi SSW 5.8 mph - N/A   Overcast
8:35 AM 64.4 °F 59.0 °F 83% 30.12 in 0.2 mi SW 4.6 mph - N/A   Overcast
8:55 AM 64.4 °F 59.0 °F 83% 30.13 in 0.2 mi WSW 6.9 mph - N/A   Overcast
9:15 AM 66.2 °F 60.8 °F 83% 30.14 in 1.5 mi SW 5.8 mph - N/A   Overcast
9:35 AM 66.2 °F 60.8 °F 83% 30.14 in 4.0 mi SW 6.9 mph - N/A   Overcast
9:55 AM 68.0 °F 60.8 °F 78% 30.14 in 7.0 mi WSW 4.6 mph - N/A   Mostly Cloudy
10:15 AM 69.8 °F 60.8 °F 73% 30.14 in 10.0 mi WSW 8.1 mph - N/A   Partly Cloudy
10:35 AM 71.6 °F 60.8 °F 69% 30.14 in 10.0 mi WSW 10.4 mph - N/A   Clear
10:55 AM 73.4 °F 62.6 °F 69% 30.14 in 10.0 mi WSW 10.4 mph - N/A   Clear
11:15 AM 75.2 °F 60.8 °F 61% 30.14 in 10.0 mi West 11.5 mph - N/A   Clear
11:35 AM 75.2 °F 60.8 °F 61% 30.14 in 10.0 mi West 11.5 mph 16.1 mph N/A   Clear
11:55 AM 75.2 °F 59.0 °F 57% 30.13 in 10.0 mi West 12.7 mph - N/A   Clear